Temperature
19 20 19 19 19 19 19 18 18 18 18 18 18 18 18 18 18 18 19 18 18 18 18 19 19 19 19 19 19 19 19 19 19 19 19 19 18 18 18 18 17 17 17
20 20 19 19 19 19 19 18 18 18 18 18 18 18 18 18 18 18 18 18 18 18 18 18 18 19 19 19 19 19 19 19 19 19 18 18 18 18 18 17 17 17 17
20 20 19 19 19 19 18 18 18 18 18 18 18 18 18 18 18 18 18 18 18 18 18 18 18 18 18 19 19 19 19 19 18 18 18 18 18 18 18 17 17 17 17
19 19 19 19 19 19 18 18 18 18 18 18 18 18 18 18 18 18 18 18 18 18 18 18 18 18 18 18 19 19 19 18 18 18 18 17 18 18 18 18 18 17 17
19 19 19 19 19 19 19 18 18 18 18 18 18 18 18 18 18 18 18 18 18 18 18 18 18 18 18 18 19 19 18 18 18 18 18 18 18 18 18 18 18 17 17
19 19 20 19 19 19 19 19 18 18 18 19 18 19 18 18 18 18 18 18 18 18 18 18 18 18 18 18 18 18 18 18 18 18 18 18 18 18 18 18 17 17 17
19 19 20 19 19 19 19 19 19 19 19 19 19 19 19 18 18 18 18 18 18 18 18 18 18 18 18 19 19 18 18 18 18 18 18 18 18 18 18 18 17 17 17
20 20 20 19 19 19 19 19 19 19 19 19 19 19 19 18 18 18 18 18 18 18 18 18 18 19 19 19 19 18 18 18 18 18 18 18 18 18 18 18 17 17 17
20 20 20 19 19 19 19 19 19 19 19 19 19 19 19 19 18 18 18 19 19 19 19 19 19 19 19 19 19 19 19 19 19 18 18 18 18 18 18 18 18 17 17
20 20 19 19 19 19 19 19 19 19 19 19 19 19 19 19 19 19 19 19 19 19 19 19 18 19 19 19 19 19 19 19 18 18 18 18 18 18 18 18 18 17 17
20 20 20 19 19 19 19 19 19 19 19 19 19 19 19 18 18 18 18 19 19 19 19 19 19 18 19 19 19 19 19 18 18 18 18 18 18 18 18 18 18 18 17
21 20 20 20 19 19 19 19 19 19 19 19 19 19 18 18 18 18 19 19 19 19 19 19 19 19 18 18 18 19 19 18 18 18 18 18 18 18 18 18 18 17 17
21 21 20 20 20 19 19 19 19 19 19 19 19 19 19 19 18 18 19 19 19 19 19 18 19 18 18 18 18 19 18 18 18 18 18 18 18 18 18 18 18 17 17
21 21 20 20 20 19 19 19 19 19 19 19 19 19 19 19 18 18 18 19 18 18 18 18 18 18 18 18 18 18 19 18 18 18 18 18 18 18 18 18 18 17 17
21 21 20 20 20 19 19 19 19 19 19 19 19 19 19 19 19 19 19 19 18 18 18 18 18 18 18 18 18 18 18 18 18 18 18 18 18 18 18 18 17 17 17
21 21 20 20 19 19 19 19 19 19 19 19 19 19 19 19 19 19 19 19 19 18 18 18 18 18 18 18 18 18 18 18 18 18 18 18 18 18 18 18 17 17 17
21 20 20 20 19 19 19 19 19 19 19 19 19 19 19 19 19 19 19 19 19 18 18 18 18 18 18 18 18 18 18 18 18 18 18 18 18 17 17 17 17 17 17
21 20 20 20 20 19 19 19 19 19 19 19 19 19 19 19 18 19 19 19 19 19 19 19 18 18 18 18 18 18 18 18 18 18 18 17 17 17 17 17 17 17 17
21 20 20 20 20 19 19 19 19 19 19 19 19 19 19 19 19 19 19 19 19 19 19 19 18 18 19 18 18 18 18 18 18 18 18 17 17 17 17 17 17 17 17
21 20 20 20 20 19 19 19 19 19 19 19 19 19 19 18 19 19 19 19 19 19 19 19 19 19 19 19 18 18 18 18 18 18 18 17 17 17 17 17 17 17 16
21 20 20 20 20 19 19 19 19 19 19 19 19 19 19 18 18 19 19 19 19 19 19 19 18 19 19 19 19 18 18 18 18 18 18 18 17 17 17 17 16 16 16
21 20 20 20 20 20 19 19 19 19 19 19 19 19 19 19 19 19 19 19 19 19 19 19 19 19 19 19 18 18 18 18 18 18 18 17 17 17 16 16 16 16 16
21 21 21 20 20 20 20 19 19 19 19 19 19 19 19 19 19 19 19 19 19 19 19 19 19 18 19 19 19 18 18 18 18 18 18 17 17 17 17 16 16 16 16
22 21 21 20 20 20 20 20 19 19 19 19 19 19 19 19 19 19 19 19 19 19 19 19 19 18 19 19 19 19 19 18 18 18 17 17 17 17 17 16 16 16 16
22 21 21 21 20 20 20 20 19 19 19 19 19 19 19 19 19 19 19 19 19 19 19 19 19 19 19 19 18 19 19 19 18 18 18 17 17 17 17 17 16 16 16
23 22 21 20 20 20 20 20 19 19 19 19 19 19 19 19 19 19 19 19 19 19 19 19 18 19 19 18 18 18 18 18 18 18 18 17 17 17 17 17 16 16 16
Wind_Speed
9 10 12 12 12 13 13 13 13 12 13 13 13 13 14 14 14 15 15 14 14 14 13 12 12 12 12 12 14 13 12 12 12 12 12 12 12 11 10 10 11 12 13
11 11 12 11 12 13 13 13 13 12 13 13 14 14 14 15 14 14 14 14 13 13 12 12 12 11 11 12 12 11 11 11 11 11 11 10 11 10 9 9 10 12 12
11 11 11 11 12 12 13 12 12 12 12 13 13 14 14 15 14 14 14 13 13 12 12 12 11 11 11 11 11 10 9 9 9 10 10 8 9 10 10 10 13 12 11
11 11 11 11 11 11 12 12 12 12 12 13 13 14 14 14 14 14 13 13 12 12 12 12 11 11 11 10 10 8 7 7 7 8 7 7 9 11 10 10 11 11 11
11 11 11 11 11 12 12 12 12 12 12 12 13 13 13 13 13 12 12 12 12 12 12 11 11 10 10 9 7 6 5 5 5 6 5 9 10 12 11 10 10 10 10
11 11 12 13 13 13 13 12 12 12 12 12 13 12 12 12 12 12 12 12 12 12 11 11 10 9 9 7 6 4 3 4 5 5 7 11 11 12 12 10 10 10 10
11 11 14 14 14 13 13 12 11 12 12 12 12 12 11 12 12 12 12 11 11 11 10 10 9 8 7 6 4 2 3 4 5 4 7 10 11 13 12 11 10 9 9
11 11 13 13 13 13 13 12 12 12 11 12 12 11 11 12 12 12 11 11 11 10 9 8 8 6 5 4 2 2 3 4 3 4 9 11 13 13 12 11 10 9 9
11 11 11 12 12 13 13 13 12 12 12 11 11 11 11 11 11 11 11 11 11 10 8 7 6 5 4 2 2 3 4 5 4 3 8 11 13 13 12 10 9 9 9
9 9 10 10 12 12 12 13 12 12 12 11 11 11 11 11 11 12 11 10 11 9 8 6 5 4 3 4 5 6 6 6 4 3 7 11 14 13 12 11 9 9 8
8 8 8 9 10 12 12 13 12 12 12 11 10 10 10 9 10 10 10 11 9 8 7 6 5 5 5 6 8 9 7 4 1 4 8 13 14 12 12 10 9 8 8
8 8 8 8 9 9 10 10 9 9 9 8 8 9 7 6 7 9 11 10 9 8 7 6 6 6 7 6 7 9 6 4 4 5 8 14 13 12 11 10 9 9 9
7 7 9 9 8 8 6 6 5 6 7 7 7 7 7 6 7 8 7 8 8 8 6 6 7 7 6 4 3 4 4 3 4 7 10 14 13 12 11 10 9 8 8
7 7 8 9 8 6 5 4 4 4 4 5 6 6 5 3 3 3 3 5 6 5 4 4 4 4 3 1 1 1 1 2 4 7 11 13 13 12 10 9 9 8 8
8 7 9 9 7 6 5 3 4 4 4 5 5 5 4 3 3 2 2 2 3 4 3 2 1 1 1 1 2 1 2 3 5 7 8 12 12 11 10 9 8 8 7
8 8 8 9 8 6 5 3 2 3 4 5 5 6 3 3 3 2 2 1 1 2 2 2 1 1 1 1 1 1 2 3 5 6 8 9 10 10 9 8 7 7 7
8 8 7 8 8 7 5 3 3 3 4 4 5 6 3 4 2 1 1 1 1 2 2 2 1 1 1 1 1 1 2 3 3 4 7 7 8 8 9 7 7 6 6
9 8 6 7 9 7 5 3 3 3 3 4 5 5 4 4 2 0 1 1 1 2 2 1 1 1 1 1 1 1 2 2 2 3 4 5 6 5 7 7 6 5 4
9 8 6 7 8 7 6 4 3 3 3 3 4 4 4 3 2 1 1 1 1 0 0 1 2 1 0 0 1 2 2 2 1 2 3 4 5 6 6 6 6 4 3
9 8 6 6 7 6 5 3 2 3 3 2 4 4 3 2 1 1 1 0 0 1 1 1 2 0 1 0 1 2 2 2 1 2 2 4 4 4 6 6 5 5 4
9 9 7 6 6 4 4 3 3 3 3 3 3 4 3 2 2 1 1 1 0 2 1 1 1 1 1 1 1 1 1 2 2 2 2 2 3 4 5 6 5 5 5
10 9 8 7 6 5 4 3 2 3 3 3 2 3 2 2 1 1 1 0 1 1 1 0 0 1 0 1 0 0 1 1 0 2 2 2 3 3 3 5 7 5 5
11 10 9 7 6 5 5 3 3 3 2 2 3 3 2 2 2 2 1 1 1 1 1 1 0 1 1 0 1 0 0 1 1 2 2 3 3 3 2 4 6 5 6
12 11 9 8 6 5 5 4 4 3 3 3 3 3 3 2 2 2 1 1 1 1 1 1 2 1 1 1 1 0 0 1 0 1 1 2 3 3 2 2 4 5 6
12 12 10 9 7 6 5 4 4 3 3 3 3 4 3 3 2 2 1 1 1 2 1 1 2 1 1 2 1 0 0 1 1 1 1 1 1 2 3 2 3 4 6
12 12 11 10 8 7 6 5 4 3 3 3 3 4 3 3 2 2 2 1 1 1 1 1 0 1 1 2 2 1 1 0 0 0 1 1 1 1 3 3 2 3 5
Wind_Direction
91 95 102 99 97 96 97 99 98 98 98 99 101 105 110 113 113 115 116 116 115 115 115 114 113 112 108 103 101 106 108 109 108 113 117 121 123 123 124 128 126 115 114
99 101 99 100 101 99 100 100 98 97 98 98 99 103 111 114 115 116 117 117 117 115 114 112 111 113 112 110 108 110 115 119 122 125 128 127 127 127 126 122 117 117 121
98 101 98 98 102 103 104 103 100 98 99 100 100 101 110 115 115 115 117 116 115 114 113 112 113 115 114 111 111 115 122 130 137 145 144 133 130 128 123 118 121 126 127
101 101 99 103 106 109 110 108 104 103 101 103 104 103 105 110 115 115 116 116 115 114 113 112 113 116 115 114 116 123 134 147 157 170 171 143 132 132 131 128 131 134 136
92 98 105 109 111 114 114 113 108 106 104 104 105 106 107 109 109 111 115 113 113 113 112 111 112 117 118 117 121 133 150 170 190 197 161 124 124 137 138 139 141 145 147
101 103 109 113 115 116 115 115 112 110 109 109 109 109 110 111 111 112 115 115 114 113 111 111 113 115 118 119 125 143 176 214 232 200 145 130 134 144 145 148 149 152 151
100 103 108 112 115 117 117 117 116 116 114 115 114 114 115 115 112 111 117 119 117 114 115 115 115 116 117 121 133 164 216 241 228 182 130 131 141 148 151 153 156 156 156
100 100 109 113 116 117 119 121 119 120 121 121 120 120 119 118 117 117 118 124 122 121 121 120 119 119 124 131 156 220 250 259 225 144 126 130 144 151 153 156 162 161 161
106 113 120 118 119 120 123 124 126 126 126 126 127 126 123 123 125 125 123 126 131 130 131 131 131 134 142 168 220 248 258 264 267 151 135 134 144 148 152 156 159 162 167
108 114 119 124 130 131 127 130 132 131 132 132 133 134 134 134 135 135 133 131 137 140 144 149 153 162 183 217 242 253 259 268 258 152 130 140 147 149 152 152 154 161 167
102 107 113 119 130 130 129 133 139 138 137 139 141 145 147 147 144 147 135 138 142 147 153 161 174 192 211 230 243 250 257 250 186 121 125 143 150 152 153 156 160 165 171
107 111 109 110 116 122 120 133 145 142 142 146 144 150 154 148 135 128 135 146 152 159 166 178 195 211 226 232 235 239 242 211 138 123 135 147 152 156 160 164 168 171 177
121 114 116 110 107 109 112 133 136 138 141 144 140 141 137 132 130 133 148 150 164 174 186 186 202 218 224 227 230 223 225 187 132 129 143 152 157 159 161 167 171 178 183
112 110 112 110 103 96 105 116 127 127 137 129 137 129 125 116 117 127 140 154 175 181 177 183 204 212 232 227 220 230 163 139 123 124 146 155 157 160 163 168 172 180 189
113 109 104 107 105 99 86 80 104 106 111 122 123 103 104 107 107 117 110 141 174 169 170 195 205 154 66 26 359 24 52 92 117 123 139 153 159 163 167 172 179 187 196
120 114 114 117 116 111 107 91 87 105 105 112 113 105 101 101 92 92 107 96 130 150 161 187 172 139 103 53 353 1 57 75 105 127 141 154 163 168 172 176 182 191 202
125 119 122 124 121 121 121 129 107 92 109 110 108 108 106 104 114 119 112 131 155 192 180 180 179 166 185 183 157 81 77 76 85 124 138 148 159 170 174 176 180 191 204
123 120 127 123 122 122 119 107 94 92 105 111 119 117 112 110 120 106 101 143 157 192 178 173 190 199 140 143 128 108 106 108 114 117 126 140 145 145 161 170 172 188 204
123 124 122 111 123 129 126 124 112 109 103 103 110 115 117 132 148 139 88 80 202 182 194 181 117 77 64 63 144 139 126 119 128 107 105 114 123 134 140 158 166 169 176
131 128 126 119 120 129 131 136 130 117 114 112 108 114 130 148 124 69 126 218 285 94 64 44 82 149 176 102 43 86 97 118 113 114 123 112 120 132 133 135 151 147 123
138 138 138 135 128 135 142 149 152 145 146 134 133 131 136 132 118 56 54 117 43 96 90 92 77 203 160 114 52 63 89 107 113 96 81 99 107 112 116 123 124 120 126
148 147 143 142 146 156 142 146 160 144 152 140 116 120 123 115 106 136 59 177 86 112 92 65 24 326 285 130 132 288 177 113 34 116 123 127 113 112 113 115 112 114 116
158 158 159 155 156 159 151 159 158 143 143 128 133 140 136 125 117 53 80 353 33 141 138 183 358 310 307 251 143 287 307 98 147 113 128 112 107 105 106 113 118 115 114
165 162 152 155 156 157 163 169 164 155 152 148 146 141 148 139 134 127 111 56 2 62 68 251 93 336 295 293 173 233 1 98 185 147 126 124 136 135 126 113 112 115 113
167 162 158 157 160 162 169 173 170 162 156 145 136 137 145 147 156 139 122 137 84 79 58 40 63 20 15 353 335 146 359 166 229 152 152 154 144 142 144 140 128 125 132
165 161 163 161 164 166 174 175 174 174 162 150 151 158 170 158 160 160 148 144 120 122 127 116 86 117 30 10 350 344 359 356 148 144 158 173 158 158 149 143 146 138 144
Height
1497 1496 1496 1496 1497 1497 1498 1499 1500 1500 1501 1502 1503 1505 1506 1508 1510 1512 1513 1515 1517 1519 1521 1522 1524 1526 1527 1528 1528 1530 1533 1535 1537 1538 1539 1540 1541 1543 1544 1545 1547 1548 1549
1498 1498 1498 1498 1498 1499 1500 1501 1502 1503 1503 1505 1506 1506 1508 1510 1512 1514 1516 1517 1519 1521 1523 1524 1526 1527 1529 1530 1531 1533 1535 1536 1538 1539 1540 1541 1542 1544 1545 1546 1548 1549 1550
1499 1499 1499 1499 1499 1500 1501 1502 1504 1505 1506 1507 1508 1509 1510 1512 1514 1516 1518 1519 1521 1523 1524 1526 1527 1529 1530 1532 1533 1534 1536 1538 1539 1540 1541 1542 1544 1545 1546 1547 1548 1550 1551
1500 1500 1499 1499 1500 1501 1503 1504 1505 1507 1508 1509 1510 1511 1512 1514 1516 1517 1519 1521 1523 1525 1526 1528 1529 1530 1532 1533 1534 1536 1537 1538 1540 1541 1542 1543 1545 1546 1547 1548 1549 1550 1552
1501 1500 1499 1499 1500 1502 1503 1505 1507 1508 1509 1511 1512 1513 1514 1516 1518 1520 1521 1523 1525 1526 1528 1529 1531 1532 1533 1534 1536 1537 1538 1540 1541 1542 1544 1544 1545 1546 1547 1548 1549 1551 1552
1502 1501 1499 1499 1501 1502 1504 1506 1508 1510 1511 1512 1514 1515 1517 1518 1520 1521 1523 1525 1526 1528 1530 1531 1532 1533 1534 1536 1537 1538 1539 1540 1541 1542 1544 1545 1546 1547 1547 1548 1549 1551 1552
1504 1503 1501 1501 1502 1504 1506 1508 1510 1511 1513 1514 1516 1517 1518 1520 1522 1523 1524 1526 1528 1529 1531 1532 1533 1534 1536 1537 1538 1539 1540 1541 1541 1543 1544 1544 1545 1546 1547 1548 1549 1551 1552
1505 1505 1504 1504 1505 1506 1508 1510 1511 1513 1515 1516 1518 1519 1521 1522 1524 1525 1526 1528 1529 1531 1532 1534 1535 1536 1537 1538 1538 1539 1540 1541 1542 1543 1543 1544 1545 1546 1547 1548 1549 1550 1552
1507 1506 1506 1506 1507 1508 1509 1511 1513 1515 1517 1518 1520 1521 1523 1524 1526 1527 1528 1529 1531 1532 1534 1535 1536 1537 1538 1538 1539 1540 1540 1541 1542 1543 1543 1544 1545 1546 1547 1547 1549 1550 1551
1509 1509 1508 1508 1508 1509 1511 1513 1515 1517 1519 1520 1522 1524 1525 1527 1528 1529 1530 1531 1532 1533 1534 1536 1537 1538 1539 1539 1539 1540 1540 1541 1542 1543 1543 1544 1545 1546 1546 1547 1548 1549 1551
1511 1511 1511 1510 1510 1512 1514 1516 1518 1519 1521 1523 1525 1526 1527 1529 1530 1531 1533 1533 1534 1535 1536 1537 1538 1539 1539 1539 1539 1539 1540 1541 1541 1542 1543 1544 1545 1545 1546 1547 1547 1549 1550
1513 1513 1513 1514 1514 1516 1518 1519 1520 1522 1524 1525 1527 1528 1530 1531 1533 1534 1535 1535 1536 1536 1537 1538 1539 1540 1539 1538 1537 1537 1538 1540 1540 1541 1542 1543 1544 1545 1545 1546 1547 1548 1549
1515 1515 1516 1517 1518 1519 1520 1522 1523 1525 1526 1528 1529 1531 1532 1533 1535 1536 1536 1537 1537 1538 1539 1540 1540 1540 1539 1538 1536 1535 1537 1539 1540 1541 1542 1543 1544 1544 1545 1545 1546 1547 1548
1517 1518 1518 1519 1520 1521 1523 1525 1526 1527 1528 1530 1531 1533 1534 1535 1536 1537 1538 1538 1539 1539 1540 1541 1541 1541 1540 1539 1537 1536 1538 1540 1540 1541 1542 1543 1543 1544 1544 1544 1545 1546 1547
1519 1520 1521 1521 1522 1523 1525 1526 1528 1529 1531 1532 1533 1534 1536 1536 1537 1538 1539 1539 1540 1540 1541 1541 1542 1541 1541 1540 1539 1539 1540 1541 1541 1541 1542 1542 1543 1543 1543 1544 1544 1545 1545
1520 1521 1522 1523 1524 1525 1526 1528 1529 1531 1532 1534 1535 1536 1537 1537 1538 1539 1540 1540 1541 1541 1541 1542 1542 1542 1541 1541 1540 1540 1541 1542 1542 1542 1542 1542 1543 1543 1543 1543 1543 1543 1544
1522 1523 1524 1525 1526 1527 1528 1530 1531 1533 1534 1535 1536 1536 1537 1538 1539 1540 1540 1541 1541 1542 1542 1542 1542 1542 1542 1542 1542 1542 1542 1542 1542 1542 1542 1542 1542 1542 1543 1542 1542 1542 1543
1523 1524 1525 1527 1527 1528 1529 1531 1533 1534 1535 1536 1537 1537 1538 1539 1539 1540 1540 1541 1541 1542 1542 1542 1542 1542 1542 1542 1542 1542 1542 1542 1542 1542 1542 1542 1542 1542 1542 1542 1542 1542 1542
1523 1524 1526 1528 1528 1529 1531 1532 1533 1535 1536 1537 1538 1538 1539 1539 1540 1540 1540 1541 1541 1542 1542 1542 1542 1542 1542 1542 1543 1543 1543 1542 1542 1542 1542 1543 1543 1542 1542 1542 1542 1541 1541
1524 1525 1526 1528 1529 1530 1532 1533 1534 1536 1537 1538 1538 1539 1539 1540 1540 1541 1541 1541 1542 1542 1542 1542 1542 1542 1542 1543 1543 1543 1543 1542 1542 1542 1542 1542 1542 1542 1542 1541 1541 1540 1540
1524 1525 1526 1528 1529 1531 1532 1533 1535 1536 1537 1538 1539 1539 1540 1541 1541 1541 1542 1541 1542 1542 1542 1542 1542 1542 1543 1543 1543 1542 1542 1542 1542 1542 1542 1542 1542 1542 1542 1541 1541 1540 1539
1523 1525 1526 1528 1529 1531 1532 1533 1535 1536 1537 1538 1539 1540 1541 1541 1541 1542 1542 1542 1542 1542 1541 1542 1542 1542 1543 1543 1543 1542 1542 1544 1543 1543 1542 1542 1542 1542 1542 1541 1541 1540 1539
1522 1524 1526 1527 1529 1530 1532 1534 1535 1536 1537 1538 1539 1540 1540 1541 1541 1541 1541 1542 1541 1541 1541 1541 1541 1542 1542 1543 1543 1543 1542 1543 1543 1543 1543 1542 1542 1542 1542 1542 1541 1540 1539
1521 1523 1524 1526 1528 1530 1531 1533 1534 1535 1537 1538 1539 1539 1540 1541 1541 1541 1541 1541 1541 1541 1541 1541 1541 1541 1542 1542 1542 1542 1542 1542 1543 1543 1544 1543 1542 1542 1541 1542 1541 1540 1539
1519 1521 1523 1525 1527 1528 1530 1532 1533 1535 1536 1537 1538 1539 1540 1540 1541 1541 1541 1541 1541 1541 1541 1541 1541 1541 1541 1541 1542 1542 1542 1542 1542 1542 1543 1543 1542 1542 1541 1541 1540 1540 1539
1517 1520 1521 1523 1525 1527 1529 1531 1532 1534 1536 1537 1538 1539 1540 1540 1540 1540 1541 1541 1541 1541 1541 1540 1541 1540 1540 1540 1541 1541 1541 1541 1541 1541 1542 1542 1542 1541 1541 1540 1540 1539 1538